This demonstration page uses our WeatherBlox Daily Observations layout. Learn more.

Left ArrowRight Arrow

36.17497, -115.13722

Hourly Observations for November 5, 2021

Temp ( °F °C ) Dew Point ( °F °C ) Humidity (%) Winds ( mph kmh ) Pressure ( in mb ) Visibility ( mi km ) Precip ( " mm )
12:53 am 00:53 Clear 62 16.7 38 3.3 41 41 WNW 3 6 30.04 1017 10 16 0.00 0.00
1:53 am 01:53 Clear 59 15 36 2.2 42 42 WNW 3 6 30.04 1017 10 16 0.00 0.00
2:53 am 02:53 Clear 58 14.4 36 2.2 44 44 NW 6 9 30.04 1017 10 16 0.00 0.00
3:53 am 03:53 Clear 60 15.6 34 1.1 38 38 W 8 13 30.04 1017 10 16 0.00 0.00
4:53 am 04:53 Clear 59 15 34 1.1 39 39 WSW 3 6 30.05 1018 10 16 0.00 0.00
5:53 am 05:53 Clear 58 14.4 35 1.7 42 42 Calm 30.06 1018 10 16 0.00 0.00
6:53 am 06:53 Clear 53 11.7 34 1.1 48 48 WNW 5 7 30.08 1019 10 16 0.00 0.00
7:53 am 07:53 Sunny 57 13.9 35 1.7 44 44 WNW 6 9 30.10 1019 10 16 0.00 0.00
8:53 am 08:53 Sunny 62 16.7 35 1.7 37 37 Calm 30.11 1020 10 16 0.00 0.00
9:53 am 09:53 Sunny 68 20 35 1.7 30 30 Calm 30.11 1020 10 16 0.00 0.00
10:53 am 10:53 Sunny 71 21.7 35 1.7 27 27 Calm 30.11 1020 10 16 0.00 0.00
11:53 am 11:53 Sunny 74 23.3 35 1.7 24 24 ESE 3 6 30.09 1019 10 16 0.00 0.00
12:53 pm 12:53 Sunny 76 24.4 34 1.1 22 22 E 3 6 30.05 1018 10 16 0.00 0.00
1:53 pm 13:53 Sunny 78 25.6 33 0.6 19 19 E 5 7 30.02 1017 10 16 0.00 0.00
2:53 pm 14:53 Sunny 79 26.1 33 0.6 19 19 VRB 3 6 30.00 1016 10 16 0.00 0.00
3:53 pm 15:53 Sunny 80 26.7 33 0.6 18 18 E 5 7 29.98 1015 10 16 0.00 0.00
4:53 pm 16:53 Sunny 79 26.1 33 0.6 19 19 SSE 6 9 29.98 1015 10 16 0.00 0.00
5:53 pm 17:53 Clear 78 25.6 33 0.6 19 19 Calm 29.98 1015 10 16 0.00 0.00
6:53 pm 18:53 Clear 74 23.3 34 1.1 23 23 Calm 30.00 1016 10 16 0.00 0.00
7:53 pm 19:53 Clear 69 20.6 35 1.7 29 29 NNW 6 9 30.01 1016 10 16 0.00 0.00
8:53 pm 20:53 Clear 66 18.9 36 2.2 33 33 WNW 5 7 30.01 1016 10 16 0.00 0.00
9:53 pm 21:53 Clear 65 18.3 36 2.2 34 34 WNW 6 9 30.01 1016 10 16 0.00 0.00
10:53 pm 22:53 Clear 63 17.2 36 2.2 37 37 WNW 5 7 30.02 1017 10 16 0.00 0.00
11:53 pm 23:53 Clear 62 16.7 35 1.7 37 37 WNW 3 6 30.01 1016 10 16 0.00 0.00

Powered by AerisWeather